sat.trackr.live / text

‹ back to catalog

QIANFAN-95

NORAD 66037 · 2025-233E

PAYLOAD ACTIVE UNKNOWN

§ Identity

Operator
Country
PRC
Launch date
2025-10-17
Launch site
TAISC
Launch vehicle
Mass (kg)
RCS (m²)

External: N2YO · Heavens-Above · Gunter

§ Orbital elements

Epoch: 2026-09-20T20:01:03.114048Z

Period
106.59 min
Inclination
89.0060°
Eccentricity
0.0001625
Mean motion
13.51027778 rev/d
Perigee alt
1,067.3 km
Apogee alt
1,069.7 km
Semi-major
7,446.6 km
B*
4.1836e-5
RAAN
32.9959°
Arg perigee
96.2341°
Mean anomaly
263.8996°
Rev number
4,639

§ Raw data

QIANFAN-951 66037U 25233E   26263.83406382  .00000039  00000+0  41836-4 0  99972 66037  89.0060  32.9959 0001625  96.2341 263.8996 13.51027778 46399

JSON: /api/v1/satellites/66037 · /tle

For live sub-satellite position, see the globe view (requires WebGL).

§ Visibility from observer

Set your observer location to see the next 7 days of passes ≥ 10°. The values pass through the URL so the page stays shareable.

No JS? Fill the form by hand. The geolocation button needs JavaScript.